#timestamp,LO_Frequency,Hit 
1502766015.6,286047003.7,N
1502766035.4,286047001.3,N
1502766055.3,286047003.7,N
1502766075.1,286047007.3,P
1502766076.0,286047007.3,P
1502766095.8,286046998.2,N
1502766115.7,286046999.4,N
1502766135.5,286046998.5,N
1502766155.3,286046999.8,N
1502766175.2,286047000.3,N
1502766195.9,286046999.7,N
1502766215.7,286047002.8,N
1502766235.5,286047001.4,N
1502766255.4,286047005.6,N
1502766275.2,286047006.8,N
1502766295.0,286047003.0,N
1502766295.9,286047003.0,N
1502766315.8,286047006.5,N
1502766335.6,286047005.1,N
1502766355.4,286047003.1,N
1502766375.3,286047004.0,N
1502766395.1,286047003.0,N
1502766415.8,286047005.4,N
1502766435.7,286047003.9,N
1502766455.5,286047003.9,N
1502766475.3,286047003.8,N
1502766495.2,286047001.8,N
1502766515.9,286047004.0,N
1502766535.7,286047001.3,N
1502766555.5,286047002.3,N
1502766575.4,286047001.2,N
1502766595.2,286047000.5,N
1502766615.0,286047002.8,N
1502766616.0,286047002.8,N
1502766635.8,286047001.3,N
1502766655.6,286047007.6,P
1502766675.5,286047001.7,N
1502766695.3,286047008.7,P
1502766715.1,286047006.1,N
1502766735.8,286047008.2,N
1502766755.7,286047010.7,P
1502766775.5,286046998.7,N
1502766795.4,286046998.1,N
1502766815.2,286046999.2,N
1502766835.0,286047000.6,N
1502766835.9,286047000.6,N
1502766855.7,286047001.1,N
1502766875.6,286047001.2,N
1502766895.4,286046998.1,N
1502766915.2,286046999.2,N
1502766935.1,286046998.7,N
1502766936.0,286046998.7,N
1502766955.8,286047000.4,N
1502766975.6,286047000.5,N
1502766995.5,286046999.0,N
1502767015.3,286046996.8,N
1502767035.1,286046997.2,N
1502767055.9,286046993.4,N
1502767075.7,286046994.2,N
1502767095.5,286046993.4,N
1502767115.3,286046995.4,N
1502767135.2,286046997.5,N
1502767155.0,286047001.2,N
1502767155.9,286047001.2,N
1502767175.7,286046998.3,N
1502767195.6,286046998.7,N
1502767215.4,286046997.2,N
1502767235.2,286046997.1,N
1502767255.1,286046999.4,N
1502767256.0,286046999.4,N
1502767275.8,286047000.4,N
1502767295.6,286046999.4,N
1502767315.5,286046996.9,N
1502767335.3,286046994.1,N
1502767355.1,286046993.9,N
1502767375.9,286046991.8,P
1502767395.7,286046993.8,N
1502767415.5,286046994.9,N
1502767435.4,286046993.5,N
1502767455.2,286046994.1,N
1502767475.0,286046991.8,P
1502767475.9,286046991.8,P
1502767495.8,286047001.0,N
1502767515.6,286046999.3,N
1502767535.4,286046999.1,N
1502767555.3,286046996.5,N
1502767575.1,286046999.6,N
1502767576.0,286046999.6,N
1502767595.8,286046998.7,N
1502767615.7,286046997.0,N
1502767635.5,286046995.8,N
1502767655.3,286046994.2,N
1502767675.2,286046993.8,N
1502767695.9,286046993.9,N
1502767715.7,286046994.2,N
1502767735.6,286046990.4,P
1502767755.4,286046995.0,N
1502767775.2,286046995.8,N
1502767795.1,286046995.0,N
1502767796.0,286046995.0,N
1502767815.8,286046997.8,N
1502767835.6,286046997.3,N
1502767855.5,286046997.1,N
1502767875.3,286046997.2,N
1502767895.1,286046997.2,N
1502767915.8,286046995.6,N
1502767935.7,286046995.2,N
1502767955.5,286046996.9,N
1502767975.3,286046999.7,N
1502767995.2,286047001.0,N
1502768015.0,286047002.8,N
1502768015.9,286047002.8,N
1502768035.7,286047001.5,N
1502768055.6,286047004.3,N
1502768075.4,286047005.7,N
1502768095.2,286047001.4,N
1502768115.1,286047003.9,N
1502768116.0,286047003.9,N
1502768135.8,286047004.1,N
1502768155.6,286047003.6,N
1502768175.5,286047004.0,N
1502768195.3,286047001.7,N
1502768215.1,286047005.9,N
1502768235.9,286047001.5,N
1502768255.7,286047002.9,N
1502768275.5,286047004.9,N
1502768295.3,286047006.2,N
1502768315.2,286047006.7,N
1502768335.0,286047003.5,N
1502768335.9,286047003.5,N
1502768355.7,286047004.1,N
1502768375.6,286047004.2,N
1502768395.4,286047006.8,N
1502768415.2,286047006.9,N
1502768435.1,286047006.4,N
1502768436.0,286047006.4,N
1502768455.8,286047008.8,P
1502768475.6,286047005.6,N
1502768495.5,286047004.8,N
1502768515.3,286047004.8,N
1502768535.2,286047006.5,P
1502768555.9,286047003.5,P
1502768575.7,286047005.4,P
1502768595.6,286047005.5,P
1502768615.4,286046995.5,P
1502768635.2,286046991.9,N
1502768655.1,286046991.8,N
1502768656.0,286046991.8,N
1502768675.8,286046994.6,N
1502768695.6,286046993.5,N
1502768715.5,286046991.8,N
1502768735.3,286046994.4,N
1502768755.1,286046990.2,N
1502768775.8,286046989.0,N
1502768795.7,286046990.1,N
1502768815.5,286046992.0,N
1502768835.3,286046993.3,N
1502768855.2,286046992.2,N
1502768875.9,286046994.7,N
1502768895.7,286046996.4,N
1502768915.6,286046995.8,N
1502768935.4,286046992.7,N
1502768955.2,286046992.5,N
1502768975.1,286046995.7,N
1502768976.0,286046995.7,N
1502768995.8,286046996.8,N
1502769015.6,286046993.9,N
1502769035.5,286046996.5,N
1502769055.3,286046997.0,N
1502769075.1,286047000.9,N
1502769095.8,286046998.9,N
1502769115.7,286046997.3,N
1502769135.5,286046996.8,N
1502769155.3,286046998.8,N
1502769175.2,286047000.0,N
1502769195.9,286047004.2,N
1502769215.7,286047000.3,N
1502769235.6,286046999.6,N
1502769255.4,286046998.3,N
1502769275.2,286046997.6,N
1502769295.1,286046995.1,N
1502769296.0,286046995.1,N
1502769315.8,286046995.7,N
1502769335.6,286046997.0,N
1502769355.5,286046996.8,N
1502769375.3,286046999.3,N
1502769395.1,286046999.9,N
1502769415.8,286046999.0,N
1502769435.7,286047000.8,N
1502769455.5,286047000.5,N
1502769475.3,286046998.7,N
1502769495.2,286046997.0,N
1502769515.9,286046995.4,N
1502769535.7,286047000.8,N
1502769555.6,286047002.6,N
1502769575.4,286047000.9,N
1502769595.2,286046996.3,N
